K7FLA Weather Reports


time (UTC)temp
F
wind
direction
speed
knots
gust
knots
rain 1hr
in
rain 24hr
in
rain mn
in
humidity
%
barometer
mb
20260507085442 53 163 0.9 1.7 0.00 0.00 0.00 80 1097.6
20260507084938 53 171 0.0 0.0 0.00 0.00 0.00 82 1097.8
20260507084435 54 208 0.9 2.6 0.00 0.00 0.00 81 1097.7
20260507083932 53 172 0.0 0.0 0.00 0.00 0.00 78 1097.8
20260507083429 53 172 0.0 0.0 0.00 0.00 0.00 78 1097.8
20260507082925 53 166 0.0 0.9 0.00 0.00 0.00 78 1097.9
20260507082421 53 161 0.0 0.0 0.00 0.00 0.00 79 1097.7
20260507081918 54 158 0.0 1.7 0.00 0.00 0.00 75 1097.7
20260507081414 54 158 0.0 1.7 0.00 0.00 0.00 75 1097.7
20260507080911 54 166 0.0 0.0 0.00 0.00 0.00 75 1097.8
20260507080407 55 185 0.0 0.0 0.00 0.00 0.00 74 1098.0
20260507075903 55 185 0.0 0.9 0.00 0.00 0.00 75 1097.8
20260507075359 55 178 0.0 0.9 0.00 0.00 0.00 76 1097.7
20260507074855 55 214 0.9 1.7 0.00 0.00 0.00 76 1097.7
20260507074353 55 201 0.9 1.7 0.00 0.00 0.00 76 1098.0
20260507073850 55 218 0.9 1.7 0.00 0.00 0.00 76 1097.9
20260507073346 55 143 0.9 0.9 0.00 0.00 0.00 77 1097.9
20260507072844 55 160 0.9 1.7 0.00 0.00 0.00 77 1098.0
20260507072341 56 188 1.7 1.7 0.00 0.00 0.00 76 1097.9
20260507071838 56 189 0.9 1.7 0.00 0.00 0.00 75 1098.2
20260507071336 55 176 0.0 0.9 0.00 0.00 0.00 76 1098.1
20260507070832 55 175 0.0 0.9 0.00 0.00 0.00 76 1098.1
20260507070329 56 166 0.9 1.7 0.00 0.00 0.00 72 1098.0
20260507065826 56 160 0.9 1.7 0.00 0.00 0.00 73 1098.2
20260507065322 57 178 0.9 1.7 0.00 0.00 0.00 73 1098.4
20260507064820 57 150 1.7 2.6 0.00 0.00 0.00 71 1098.2
20260507064319 58 209 0.0 1.7 0.00 0.00 0.00 72 1098.2
20260507063816 58 289 2.6 2.6 0.00 0.00 0.00 71 1098.3
20260507063313 58 243 1.7 2.6 0.00 0.00 0.00 70 1098.3
20260507062809 58 238 0.9 1.7 0.00 0.00 0.00 71 1098.3
20260507062306 58 223 0.9 1.7 0.00 0.00 0.00 70 1098.4
20260507061804 58 245 1.7 1.7 0.00 0.00 0.00 69 1098.2
20260507061302 58 220 0.9 1.7 0.00 0.00 0.00 69 1098.2
20260507060800 58 234 0.9 1.7 0.00 0.00 0.00 69 1098.3
20260507060256 59 228 0.9 1.7 0.00 0.00 0.00 69 1098.3
20260507055753 59 223 1.7 2.6 0.00 0.00 0.00 70 1098.2
20260507055248 59 207 0.9 1.7 0.00 0.00 0.00 70 1098.4
20260507054744 59 199 1.7 1.7 0.00 0.00 0.00 69 1098.2
20260507054241 59 223 0.9 1.7 0.00 0.00 0.00 70 1098.3
20260507053739 59 228 1.7 2.6 0.00 0.00 0.00 69 1098.3
20260507053236 59 193 0.9 1.7 0.00 0.00 0.00 70 1098.3
20260507052735 59 217 0.9 1.7 0.00 0.00 0.00 68 1098.2
20260507052231 59 180 0.0 1.7 0.00 0.00 0.00 67 1098.4
20260507051729 59 236 1.7 1.7 0.00 0.00 0.00 67 1098.1
20260507051226 59 216 0.0 0.9 0.00 0.00 0.00 67 1098.4
20260507050722 60 235 0.9 1.7 0.00 0.00 0.00 67 1098.2
20260507050220 60 210 1.7 1.7 0.00 0.00 0.00 67 1098.4
20260507045716 60 185 0.0 0.0 0.00 0.00 0.00 67 1098.3
20260507045212 60 212 0.9 1.7 0.00 0.00 0.00 67 1098.5
20260507044710 60 214 0.9 1.7 0.00 0.00 0.00 67 1098.4
20260507044206 60 193 0.0 1.7 0.00 0.00 0.00 66 1098.3
20260507043702 61 164 0.0 1.7 0.00 0.00 0.00 66 1098.1
20260507043159 61 209 0.9 0.9 0.00 0.00 0.00 64 1098.2
20260507042656 61 172 0.9 1.7 0.00 0.00 0.00 64 1098.1
20260507042150 61 179 0.9 0.9 0.00 0.00 0.00 64 1098.1
20260507041648 61 197 0.0 0.9 0.00 0.00 0.00 63 1098.3
20260507041144 62 217 0.9 1.7 0.00 0.00 0.00 63 1098.1
20260507040642 62 171 0.9 1.7 0.00 0.00 0.00 62 1098.0
20260507040138 62 168 0.9 2.6 0.00 0.00 0.00 61 1098.0
20260507035634 63 151 0.9 1.7 0.00 0.00 0.00 61 1098.1
20260507035130 63 223 0.9 2.6 0.00 0.00 0.00 61 1097.8
20260507034627 63 221 0.9 2.6 0.00 0.00 0.00 61 1097.8
20260507034124 63 217 1.7 3.5 0.00 0.00 0.00 61 1097.8
20260507033623 63 228 0.9 2.6 0.00 0.00 0.00 60 1097.8
20260507033119 64 155 0.9 1.7 0.00 0.00 0.00 60 1097.6
20260507032617 64 218 0.0 1.7 0.00 0.00 0.00 60 1097.5
20260507032113 64 230 1.7 2.6 0.00 0.00 0.00 59 1097.4
20260507031610 64 218 1.7 1.7 0.00 0.00 0.00 58 1097.5
20260507031106 65 213 1.7 1.7 0.00 0.00 0.00 57 1097.4
20260507030603 65 193 0.9 2.6 0.00 0.00 0.00 57 1097.5
20260507030101 66 186 0.9 1.7 0.00 0.00 0.00 56 1097.3
20260507025558 66 203 1.7 2.6 0.00 0.00 0.00 54 1097.0
20260507025055 67 161 2.6 3.5 0.00 0.00 0.00 48 1097.0
20260507024553 68 171 0.0 0.9 0.00 0.00 0.00 47 1097.0
20260507024049 68 249 1.7 5.2 0.00 0.00 0.00 47 1096.9
20260507023545 68 228 1.7 7.0 0.00 0.00 0.00 47 1097.0
20260507023043 69 236 1.7 2.6 0.00 0.00 0.00 45 1096.7
20260507022539 69 196 1.7 2.6 0.00 0.00 0.00 44 1096.8
20260507022034 69 275 2.6 6.1 0.00 0.00 0.00 44 1096.6
20260507021531 70 284 2.6 3.5 0.00 0.00 0.00 43 1096.7
20260507021028 70 274 5.2 7.0 0.00 0.00 0.00 43 1096.7
20260507020525 71 231 4.3 7.0 0.00 0.00 0.00 43 1096.4
20260507020021 72 258 3.5 8.7 0.00 0.00 0.00 42 1096.6
20260507015520 73 261 3.5 7.0 0.00 0.00 0.00 41 1096.6
20260507015017 73 241 4.3 5.2 0.00 0.00 0.00 39 1096.3
20260507014513 73 326 2.6 6.1 0.00 0.00 0.00 39 1096.3
20260507014009 73 283 2.6 5.2 0.00 0.00 0.00 38 1096.5
20260507013506 74 279 2.6 6.1 0.00 0.00 0.00 37 1096.3
20260507013004 74 272 5.2 7.0 0.00 0.00 0.00 37 1096.3
20260507012500 74 320 5.2 7.0 0.00 0.00 0.00 36 1096.3
20260507011957 75 290 1.7 6.1 0.00 0.00 0.00 36 1096.4
20260507011454 75 316 1.7 5.2 0.00 0.00 0.00 36 1096.2
20260507010949 75 250 6.1 7.8 0.00 0.00 0.00 36 1096.4
20260507010444 75 303 3.5 6.1 0.00 0.00 0.00 36 1096.3
20260507005941 75 269 3.5 5.2 0.00 0.00 0.00 36 1096.2
20260507005439 75 271 1.7 2.6 0.00 0.00 0.00 35 1096.3
20260507004935 76 296 4.3 7.0 0.00 0.00 0.00 34 1096.3
20260507004432 76 249 3.5 7.0 0.00 0.00 0.00 35 1096.2
20260507003929 76 288 4.3 7.0 0.00 0.00 0.00 34 1096.0
20260507003424 76 195 3.5 7.0 0.00 0.00 0.00 35 1096.3
20260507002920 76 254 3.5 7.0 0.00 0.00 0.00 35 1096.1
20260507002416 76 278 3.5 6.1 0.00 0.00 0.00 34 1095.9
20260507001913 76 286 2.6 6.1 0.00 0.00 0.00 35 1095.9
20260507001410 76 280 2.6 5.2 0.00 0.00 0.00 37 1096.0
20260507000908 76 266 3.5 7.0 0.00 0.00 0.00 36 1095.9
20260507000405 77 293 3.5 6.1 0.00 0.00 0.00 36 1096.0
20260506235859 77 261 3.5 6.1 0.00 0.00 0.00 35 1095.9
20260506235356 77 260 3.5 5.2 0.00 0.00 0.00 34 1095.6
20260506234851 77 285 4.3 11.3 0.00 0.00 0.00 34 1095.9
20260506234350 77 311 1.7 6.1 0.00 0.00 0.00 34 1095.7
20260506233847 77 230 2.6 6.1 0.00 0.00 0.00 36 1095.7
20260506233343 77 255 3.5 7.0 0.00 0.00 0.00 35 1095.6
20260506232840 78 299 3.5 7.8 0.00 0.00 0.00 35 1095.7
20260506232336 78 245 5.2 7.8 0.00 0.00 0.00 35 1095.6
20260506231832 78 258 5.2 6.1 0.00 0.00 0.00 34 1095.7
20260506231330 78 275 0.9 2.6 0.00 0.00 0.00 35 1095.9
20260506230827 78 266 4.3 6.1 0.00 0.00 0.00 34 1096.1
20260506230324 78 225 3.5 6.1 0.00 0.00 0.00 35 1096.0
20260506225820 78 299 3.5 7.0 0.00 0.00 0.00 34 1095.9
20260506225318 78 211 5.2 7.0 0.00 0.00 0.00 34 1095.7
20260506224814 78 237 4.3 7.8 0.00 0.00 0.00 34 1096.0
20260506224312 78 268 3.5 6.1 0.00 0.00 0.00 34 1096.0
20260506223808 79 238 1.7 6.1 0.00 0.00 0.00 32 1096.0
20260506223304 79 235 3.5 7.8 0.00 0.00 0.00 33 1096.0
20260506222801 79 257 3.5 7.8 0.00 0.00 0.00 35 1096.1
20260506222256 79 252 4.3 8.7 0.00 0.00 0.00 33 1096.1
20260506221754 79 183 1.7 6.1 0.00 0.00 0.00 34 1096.2
20260506221252 79 250 1.7 5.2 0.00 0.00 0.00 33 1096.2
20260506220750 79 256 3.5 5.2 0.00 0.00 0.00 33 1096.3
20260506220249 79 269 4.3 6.1 0.00 0.00 0.00 33 1096.2
20260506215747 79 251 5.2 7.0 0.00 0.00 0.00 33 1096.4
20260506215242 79 170 0.9 5.2 0.00 0.00 0.00 34 1096.5
20260506214739 79 285 2.6 3.5 0.00 0.00 0.00 32 1096.7
20260506214236 79 245 3.5 7.0 0.00 0.00 0.00 34 1096.7
20260506213734 78 248 3.5 7.8 0.00 0.00 0.00 35 1096.5
20260506213231 78 172 0.9 1.7 0.00 0.00 0.00 32 1096.7
20260506212729 78 214 0.9 6.1 0.00 0.00 0.00 33 1096.8
20260506212224 78 155 1.7 5.2 0.00 0.00 0.00 31 1097.1
20260506211719 78 161 0.9 1.7 0.00 0.00 0.00 31 1096.7
20260506211216 78 201 0.0 3.5 0.00 0.00 0.00 34 1096.9
20260506210713 78 186 1.7 7.0 0.00 0.00 0.00 32 1096.9
20260506210210 78 275 2.6 3.5 0.00 0.00 0.00 33 1097.1
20260506205707 78 258 2.6 5.2 0.00 0.00 0.00 33 1096.9
20260506205202 78 161 2.6 7.8 0.00 0.00 0.00 32 1096.8
20260506204659 78 257 0.9 1.7 0.00 0.00 0.00 34 1097.0
20260506204156 78 269 1.7 5.2 0.00 0.00 0.00 38 1097.1
20260506203655 77 204 0.9 5.2 0.00 0.00 0.00 34 1097.3
20260506203152 77 96 4.3 7.0 0.00 0.00 0.00 33 1097.3
20260506202650 77 211 2.6 6.1 0.00 0.00 0.00 35 1097.4
20260506202145 77 234 2.6 6.1 0.00 0.00 0.00 34 1097.3
20260506201642 77 222 0.0 5.2 0.00 0.00 0.00 36 1097.5
20260506201138 76 240 1.7 6.1 0.00 0.00 0.00 34 1097.5
20260506200635 76 306 2.6 5.2 0.00 0.00 0.00 36 1097.5
20260506200132 75 357 2.6 3.5 0.00 0.00 0.00 38 1097.6
20260506195629 75 208 0.9 1.7 0.00 0.00 0.00 34 1097.5
20260506195125 76 107 2.6 3.5 0.00 0.00 0.00 37 1097.6
20260506194623 76 309 2.6 2.6 0.00 0.00 0.00 32 1097.8
20260506194119 76 227 2.6 3.5 0.00 0.00 0.00 38 1097.9
20260506193617 76 264 5.2 7.8 0.00 0.00 0.00 34 1097.9
20260506193114 75 221 1.7 3.5 0.00 0.00 0.00 38 1097.7
20260506192611 75 202 0.9 3.5 0.00 0.00 0.00 36 1097.9
20260506192106 75 256 4.3 6.1 0.00 0.00 0.00 38 1098.0
20260506191603 74 189 0.9 2.6 0.00 0.00 0.00 37 1097.9
20260506191059 74 182 0.9 5.2 0.00 0.00 0.00 37 1098.1
20260506190557 75 208 1.7 6.1 0.00 0.00 0.00 37 1098.1
20260506190053 75 106 1.7 5.2 0.00 0.00 0.00 34 1098.2
20260506185551 75 248 2.6 5.2 0.00 0.00 0.00 40 1098.3
20260506185047 75 255 3.5 5.2 0.00 0.00 0.00 35 1098.1
20260506184545 74 240 1.7 3.5 0.00 0.00 0.00 40 1098.5
20260506184042 74 116 2.6 2.6 0.00 0.00 0.00 37 1098.4
20260506183537 74 193 0.0 2.6 0.00 0.00 0.00 41 1098.5
20260506183034 73 205 3.5 7.0 0.00 0.00 0.00 39 1098.4
20260506182532 73 229 0.9 1.7 0.00 0.00 0.00 37 1098.4
20260506182029 73 252 0.0 0.9 0.00 0.00 0.00 38 1098.7
20260506181527 72 148 3.5 5.2 0.00 0.00 0.00 40 1098.7
20260506181023 72 187 0.9 5.2 0.00 0.00 0.00 37 1098.7
20260506180520 72 118 1.7 3.5 0.00 0.00 0.00 38 1098.7
20260506180016 72 221 1.7 3.5 0.00 0.00 0.00 40 1098.7
20260506175513 72 219 2.6 3.5 0.00 0.00 0.00 44 1098.5
20260506175009 72 105 4.3 6.1 0.00 0.00 0.00 39 1098.5
20260506174508 72 223 0.0 2.6 0.00 0.00 0.00 39 1098.8
20260506174004 71 220 1.7 6.1 0.00 0.00 0.00 41 1098.7
20260506173502 71 237 3.5 3.5 0.00 0.00 0.00 42 1098.4
20260506172958 72 304 1.7 7.0 0.00 0.00 0.00 45 1098.5
20260506172456 71 244 1.7 3.5 0.00 0.00 0.00 41 1098.7
20260506171952 71 154 0.0 1.7 0.00 0.00 0.00 43 1098.4
20260506171449 71 169 0.0 0.9 0.00 0.00 0.00 40 1098.7
20260506170947 71 256 1.7 3.5 0.00 0.00 0.00 42 1098.5
20260506170444 70 239 3.5 5.2 0.00 0.00 0.00 43 1098.5
20260506165942 70 236 3.5 7.0 0.00 0.00 0.00 44 1098.5
20260506165440 69 237 1.7 2.6 0.00 0.00 0.00 44 1098.3
20260506164930 69 235 2.6 3.5 0.00 0.00 0.00 45 1098.4
20260506164427 69 265 3.5 6.1 0.00 0.00 0.00 43 1098.5
20260506163920 70 134 0.9 5.2 0.00 0.00 0.00 43 1098.5
20260506163420 70 234 0.9 1.7 0.00 0.00 0.00 43 1098.5
20260506162915 70 252 1.7 1.7 0.00 0.00 0.00 41 1098.4
20260506162413 70 232 4.3 6.1 0.00 0.00 0.00 44 1098.7
20260506161910 70 232 3.5 3.5 0.00 0.00 0.00 43 1098.4
20260506161408 70 209 3.5 3.5 0.00 0.00 0.00 43 1098.4
20260506160905 70 239 1.7 2.6 0.00 0.00 0.00 42 1098.2
20260506160402 70 250 1.7 5.2 0.00 0.00 0.00 44 1098.2
20260506155900 69 214 0.9 1.7 0.00 0.00 0.00 48 1098.2
20260506155356 69 232 1.7 3.5 0.00 0.00 0.00 46 1098.2
20260506153514 66 179 0.0 3.5 0.00 0.00 0.00 50 1098.2
20260506153011 66 227 1.7 2.6 0.00 0.00 0.00 48 1098.2
20260506152508 66 247 1.7 3.5 0.00 0.00 0.00 49 1098.3
20260506152006 66 187 2.6 5.2 0.00 0.00 0.00 49 1098.1
20260506151503 66 280 1.7 3.5 0.00 0.00 0.00 51 1098.2
20260506151001 65 210 0.0 2.6 0.00 0.00 0.00 52 1098.2
20260506150456 64 266 3.5 3.5 0.00 0.00 0.00 59 1098.1
20260506145954 62 228 0.9 3.5 0.00 0.00 0.00 56 1098.2
20260506145450 62 238 2.6 2.6 0.00 0.00 0.00 62 1098.0
20260506144948 61 209 0.9 1.7 0.00 0.00 0.00 63 1098.3
20260506144444 61 189 0.9 2.6 0.00 0.00 0.00 65 1098.2
20260506143942 59 231 1.7 2.6 0.00 0.00 0.00 67 1098.3
20260506143439 59 235 1.7 3.5 0.00 0.00 0.00 69 1098.3
20260506142937 58 223 0.9 0.9 0.00 0.00 0.00 72 1098.2
20260506142435 57 179 1.7 2.6 0.00 0.00 0.00 73 1098.0
20260506141933 57 207 0.9 0.9 0.00 0.00 0.00 74 1098.1
20260506141430 56 148 0.0 0.0 0.00 0.00 0.00 80 1098.1
20260506140929 52 146 0.0 0.9 0.00 0.00 0.00 86 1097.9
20260506140425 52 146 0.0 0.9 0.00 0.00 0.00 86 1097.9
20260506135922 51 144 0.0 0.9 0.00 0.00 0.00 90 1097.9
20260506135420 49 216 0.0 0.9 0.00 0.00 0.00 91 1097.8
20260506134915 48 222 0.9 1.7 0.00 0.00 0.00 91 1097.9
20260506134412 47 160 0.0 1.7 0.00 0.00 0.00 93 1097.7
20260506133909 46 155 0.0 0.9 0.00 0.00 0.00 93 1097.6
20260506133406 45 182 0.9 1.7 0.00 0.00 0.00 93 1097.8
20260506132902 45 164 0.0 0.9 0.00 0.00 0.00 93 1097.7
20260506132359 45 229 1.7 1.7 0.00 0.00 0.00 93 1097.6
20260506131858 45 150 0.9 0.9 0.00 0.00 0.00 94 1097.7
20260506131353 45 156 1.7 1.7 0.00 0.00 0.00 93 1097.6
20260506130851 45 167 0.0 0.9 0.00 0.00 0.00 94 1097.5
20260506130347 45 226 0.9 1.7 0.00 0.00 0.00 94 1097.4
20260506125845 45 219 0.9 1.7 0.00 0.00 0.00 94 1097.3
20260506125343 45 194 0.9 1.7 0.00 0.00 0.00 94 1097.5
20260506124841 45 201 0.9 1.7 0.00 0.00 0.00 94 1097.5
20260506124338 45 206 1.7 2.6 0.00 0.00 0.00 94 1097.4
20260506123836 45 201 0.9 1.7 0.00 0.00 0.00 94 1097.3
20260506123334 45 219 1.7 1.7 0.00 0.00 0.00 94 1097.1
20260506122831 45 212 0.9 1.7 0.00 0.00 0.00 94 1097.1
20260506122327 45 218 0.9 1.7 0.00 0.00 0.00 93 1097.1
20260506121826 45 157 0.9 2.6 0.00 0.00 0.00 93 1097.3
20260506121322 45 178 0.9 1.7 0.00 0.00 0.00 93 1097.0
20260506120820 45 205 1.7 1.7 0.00 0.00 0.00 92 1097.4
20260506120318 45 179 0.9 0.9 0.00 0.00 0.00 92 1097.3
20260506115815 45 161 0.9 1.7 0.00 0.00 0.00 93 1097.3
20260506115313 45 192 0.9 1.7 0.00 0.00 0.00 93 1097.3
20260506114810 45 240 1.7 1.7 0.00 0.00 0.00 92 1097.1
20260506114308 46 184 0.0 0.9 0.00 0.00 0.00 92 1097.1
20260506113806 46 209 0.9 2.6 0.00 0.00 0.00 92 1097.3
20260506113303 46 215 1.7 2.6 0.00 0.00 0.00 92 1097.3
20260506112637 46 216 0.9 2.6 0.00 0.00 0.00 91 1097.3
20260506112135 46 216 0.9 2.6 0.00 0.00 0.00 91 1097.3
20260506111633 46 240 1.7 2.6 0.00 0.00 0.00 91 1097.1
20260506111130 46 218 1.7 2.6 0.00 0.00 0.00 90 1097.0
20260506110628 46 191 1.7 1.7 0.00 0.00 0.00 91 1097.0
20260506110125 46 194 1.7 3.5 0.00 0.00 0.00 91 1096.9
20260506105621 46 202 1.7 2.6 0.00 0.00 0.00 90 1096.9
20260506105118 46 212 1.7 3.5 0.00 0.00 0.00 90 1097.0
20260506104617 47 235 2.6 3.5 0.00 0.00 0.00 90 1097.1
20260506104114 47 205 1.7 3.5 0.00 0.00 0.00 90 1097.0
20260506103611 47 201 2.6 2.6 0.00 0.00 0.00 90 1096.9
20260506103108 47 191 2.6 3.5 0.00 0.00 0.00 90 1096.9
20260506102606 46 218 2.6 3.5 0.00 0.00 0.00 89 1097.1
20260506102017 46 241 1.7 2.6 0.00 0.00 0.00 89 1097.0
20260506101513 46 241 1.7 2.6 0.00 0.00 0.00 89 1097.0
20260506101011 47 196 1.7 1.7 0.00 0.00 0.00 89 1096.9
20260506100509 46 234 1.7 3.5 0.00 0.00 0.00 89 1096.9
20260506100007 47 223 2.6 2.6 0.00 0.00 0.00 88 1097.0
20260506095505 47 235 1.7 2.6 0.00 0.00 0.00 89 1097.0
20260506095001 47 228 2.6 2.6 0.00 0.00 0.00 89 1097.0
20260506094459 47 207 2.6 2.6 0.00 0.00 0.00 89 1096.9
20260506093956 47 195 1.7 2.6 0.00 0.00 0.00 89 1097.1
20260506093454 47 203 1.7 1.7 0.00 0.00 0.00 88 1097.0
20260506092952 47 190 0.9 1.7 0.00 0.00 0.00 87 1096.9
20260506092450 47 241 1.7 3.5 0.00 0.00 0.00 87 1096.8
20260506091946 47 216 1.7 3.5 0.00 0.00 0.00 87 1096.9
20260506091444 48 242 1.7 3.5 0.00 0.00 0.00 86 1097.1
20260506090941 48 234 1.7 3.5 0.00 0.00 0.00 85 1097.1
20260506090439 48 198 2.6 2.6 0.00 0.00 0.00 85 1097.3
20260506085935 48 217 2.6 3.5 0.00 0.00 0.00 85 1097.4